Year,Month,Day,Hour,Minute,Value (Times are PST for temperature in C)
2015,10,11,00,00,8.70
2015,10,11,00,01,8.70
2015,10,11,00,02,8.70
2015,10,11,00,03,8.60
2015,10,11,00,04,8.50
2015,10,11,00,05,8.50
2015,10,11,00,06,8.40
2015,10,11,00,07,8.40
2015,10,11,00,08,8.40
2015,10,11,00,09,8.30
2015,10,11,00,10,8.30
2015,10,11,00,11,8.30
2015,10,11,00,12,8.20
2015,10,11,00,13,8.20
2015,10,11,00,14,8.20
2015,10,11,00,15,8.20
2015,10,11,00,16,8.20
2015,10,11,00,17,8.30
2015,10,11,00,18,8.30
2015,10,11,00,19,8.30
2015,10,11,00,20,8.30
2015,10,11,00,21,8.30
2015,10,11,00,22,8.40
2015,10,11,00,23,8.40
2015,10,11,00,24,8.40
2015,10,11,00,25,8.40
2015,10,11,00,26,8.40
2015,10,11,00,27,8.30
2015,10,11,00,28,8.30
2015,10,11,00,29,8.30
2015,10,11,00,30,8.20
2015,10,11,00,31,8.20
2015,10,11,00,32,8.20
2015,10,11,00,33,8.10
2015,10,11,00,34,8.10
2015,10,11,00,35,8.10
2015,10,11,00,36,8.10
2015,10,11,00,37,8.10
2015,10,11,00,38,8.10
2015,10,11,00,39,8.10
2015,10,11,00,40,8.10
2015,10,11,00,41,8.10
2015,10,11,00,42,8.10
2015,10,11,00,43,8.10
2015,10,11,00,44,8.10
2015,10,11,00,45,8.10
2015,10,11,00,46,8.10
2015,10,11,00,47,8.10
2015,10,11,00,48,8.10
2015,10,11,00,49,8.10
2015,10,11,00,50,8.10
2015,10,11,00,51,8.10
2015,10,11,00,52,8.00
2015,10,11,00,53,8.00
2015,10,11,00,54,8.00
2015,10,11,00,55,8.00
2015,10,11,00,56,7.90
2015,10,11,00,57,7.90
2015,10,11,00,58,7.90
2015,10,11,00,59,7.90
2015,10,11,01,00,7.80
2015,10,11,01,01,7.70
2015,10,11,01,02,7.70
2015,10,11,01,03,7.60
2015,10,11,01,04,7.60
2015,10,11,01,05,7.50
2015,10,11,01,06,7.50
2015,10,11,01,07,7.40
2015,10,11,01,08,7.40
2015,10,11,01,09,7.40
2015,10,11,01,10,7.40
2015,10,11,01,11,7.40
2015,10,11,01,12,7.40
2015,10,11,01,13,7.30
2015,10,11,01,14,7.30
2015,10,11,01,15,7.20
2015,10,11,01,16,7.10
2015,10,11,01,17,7.10
2015,10,11,01,18,7.00
2015,10,11,01,19,7.00
2015,10,11,01,20,6.90
2015,10,11,01,21,6.90
2015,10,11,01,22,6.90
2015,10,11,01,23,6.80
2015,10,11,01,24,6.70
2015,10,11,01,25,6.70
2015,10,11,01,26,6.60
2015,10,11,01,27,6.60
2015,10,11,01,28,6.60
2015,10,11,01,29,6.70
2015,10,11,01,30,6.70
2015,10,11,01,31,6.80
2015,10,11,01,32,6.80
2015,10,11,01,33,6.80
2015,10,11,01,34,6.90
2015,10,11,01,35,6.90
2015,10,11,01,36,6.90
2015,10,11,01,37,6.90
2015,10,11,01,38,6.90
2015,10,11,01,39,6.90
2015,10,11,01,40,6.90
2015,10,11,01,41,6.90
2015,10,11,01,42,6.90
2015,10,11,01,43,7.00
2015,10,11,01,44,7.00
2015,10,11,01,45,7.00
2015,10,11,01,46,7.10
2015,10,11,01,47,7.10
2015,10,11,01,48,7.10
2015,10,11,01,49,7.10
2015,10,11,01,50,7.10
2015,10,11,01,51,7.10
2015,10,11,01,52,7.10
2015,10,11,01,53,7.10
2015,10,11,01,54,7.10
2015,10,11,01,55,7.10
2015,10,11,01,56,7.00
2015,10,11,01,57,7.00
2015,10,11,01,58,7.00
2015,10,11,01,59,6.90
2015,10,11,02,00,6.90
2015,10,11,02,01,6.80
2015,10,11,02,02,6.80
2015,10,11,02,03,6.80
2015,10,11,02,04,6.80
2015,10,11,02,05,6.70
2015,10,11,02,06,6.70
2015,10,11,02,07,6.70
2015,10,11,02,08,6.70
2015,10,11,02,09,6.70
2015,10,11,02,10,6.70
2015,10,11,02,11,6.70
2015,10,11,02,12,6.70
2015,10,11,02,13,6.70
2015,10,11,02,14,6.70
2015,10,11,02,15,6.70
2015,10,11,02,16,6.60
2015,10,11,02,17,6.60
2015,10,11,02,18,6.60
2015,10,11,02,19,6.60
2015,10,11,02,20,6.60
2015,10,11,02,21,6.60
2015,10,11,02,22,6.50
2015,10,11,02,23,6.50
2015,10,11,02,24,6.50
2015,10,11,02,25,6.50
2015,10,11,02,26,6.50
2015,10,11,02,27,6.50
2015,10,11,02,28,6.40
2015,10,11,02,29,6.40
2015,10,11,02,30,6.30
2015,10,11,02,31,6.20
2015,10,11,02,32,6.20
2015,10,11,02,33,6.20
2015,10,11,02,34,6.20
2015,10,11,02,35,6.20
2015,10,11,02,36,6.20
2015,10,11,02,37,6.20
2015,10,11,02,38,6.20
2015,10,11,02,39,6.20
2015,10,11,02,40,6.20
2015,10,11,02,41,6.20
2015,10,11,02,42,6.10
2015,10,11,02,43,6.10
2015,10,11,02,44,6.10
2015,10,11,02,45,6.10
2015,10,11,02,46,6.10
2015,10,11,02,47,6.10
2015,10,11,02,48,6.10
2015,10,11,02,49,6.10
2015,10,11,02,50,6.10
2015,10,11,02,51,6.00
2015,10,11,02,52,6.00
2015,10,11,02,53,5.90
2015,10,11,02,54,5.90
2015,10,11,02,55,5.80
2015,10,11,02,56,5.70
2015,10,11,02,57,5.60
2015,10,11,02,58,5.60
2015,10,11,02,59,5.50
2015,10,11,03,00,5.50
2015,10,11,03,01,5.50
2015,10,11,03,02,5.50
2015,10,11,03,03,5.50
2015,10,11,03,04,5.50
2015,10,11,03,05,5.50
2015,10,11,03,06,5.50
2015,10,11,03,07,5.40
2015,10,11,03,08,5.40
2015,10,11,03,09,5.40
2015,10,11,03,10,5.40
2015,10,11,03,11,5.40
2015,10,11,03,12,5.40
2015,10,11,03,13,5.40
2015,10,11,03,14,5.40
2015,10,11,03,15,5.40
2015,10,11,03,16,5.40
2015,10,11,03,17,5.50
2015,10,11,03,18,5.50
2015,10,11,03,19,5.50
2015,10,11,03,20,5.50
2015,10,11,03,21,5.40
2015,10,11,03,22,5.50
2015,10,11,03,23,5.40
2015,10,11,03,24,5.40
2015,10,11,03,25,5.40
2015,10,11,03,26,5.40
2015,10,11,03,27,5.40
2015,10,11,03,28,5.40
2015,10,11,03,29,5.40
2015,10,11,03,30,5.40
2015,10,11,03,31,5.40
2015,10,11,03,32,5.40
2015,10,11,03,33,5.50
2015,10,11,03,34,5.40
2015,10,11,03,35,5.50
2015,10,11,03,36,5.40
2015,10,11,03,37,5.40
2015,10,11,03,38,5.40
2015,10,11,03,39,5.40
2015,10,11,03,40,5.40
2015,10,11,03,41,5.40
2015,10,11,03,42,5.40
2015,10,11,03,43,5.40
2015,10,11,03,44,5.40
2015,10,11,03,45,5.40
2015,10,11,03,46,5.40
2015,10,11,03,47,5.40
2015,10,11,03,48,5.50
2015,10,11,03,49,5.50
2015,10,11,03,50,5.50
2015,10,11,03,51,5.60
2015,10,11,03,52,5.60
2015,10,11,03,53,5.60
2015,10,11,03,54,5.60
2015,10,11,03,55,5.70
2015,10,11,03,56,5.70
2015,10,11,03,57,5.70
2015,10,11,03,58,5.70
2015,10,11,03,59,5.60
2015,10,11,04,00,5.60
2015,10,11,04,01,5.60
2015,10,11,04,02,5.50
2015,10,11,04,03,5.40
2015,10,11,04,04,5.30
2015,10,11,04,05,5.10
2015,10,11,04,06,5.00
2015,10,11,04,07,4.90
2015,10,11,04,08,4.80
2015,10,11,04,09,4.70
2015,10,11,04,10,4.70
2015,10,11,04,11,4.70
2015,10,11,04,12,4.70
2015,10,11,04,13,4.70
2015,10,11,04,14,4.70
2015,10,11,04,15,4.70
2015,10,11,04,16,4.70
2015,10,11,04,17,4.70
2015,10,11,04,18,4.70
2015,10,11,04,19,4.70
2015,10,11,04,20,4.80
2015,10,11,04,21,4.80
2015,10,11,04,22,4.80
2015,10,11,04,23,4.80
2015,10,11,04,24,4.80
2015,10,11,04,25,4.90
2015,10,11,04,26,4.90
2015,10,11,04,27,4.90
2015,10,11,04,28,4.90
2015,10,11,04,29,5.00
2015,10,11,04,30,5.00
2015,10,11,04,31,5.00
2015,10,11,04,32,5.10
2015,10,11,04,33,5.10
2015,10,11,04,34,5.10
2015,10,11,04,35,5.20
2015,10,11,04,36,5.20
2015,10,11,04,37,5.20
2015,10,11,04,38,5.10
2015,10,11,04,39,5.10
2015,10,11,04,40,5.10
2015,10,11,04,41,5.10
2015,10,11,04,42,5.00
2015,10,11,04,43,5.00
2015,10,11,04,44,5.00
2015,10,11,04,45,4.90
2015,10,11,04,46,4.90
2015,10,11,04,47,4.90
2015,10,11,04,48,4.80
2015,10,11,04,49,4.80
2015,10,11,04,50,4.70
2015,10,11,04,51,4.70
2015,10,11,04,52,4.60
2015,10,11,04,53,4.60
2015,10,11,04,54,4.60
2015,10,11,04,55,4.50
2015,10,11,04,56,4.50
2015,10,11,04,57,4.40
2015,10,11,04,58,4.40
2015,10,11,04,59,4.40
2015,10,11,05,00,4.40
2015,10,11,05,01,4.40
2015,10,11,05,02,4.30
2015,10,11,05,03,4.30
2015,10,11,05,04,4.30
2015,10,11,05,05,4.30
2015,10,11,05,06,4.30
2015,10,11,05,07,4.40
2015,10,11,05,08,4.40
2015,10,11,05,09,4.50
2015,10,11,05,10,4.50
2015,10,11,05,11,4.60
2015,10,11,05,12,4.60
2015,10,11,05,13,4.60
2015,10,11,05,14,4.60
2015,10,11,05,15,4.60
2015,10,11,05,16,4.60
2015,10,11,05,17,4.60
2015,10,11,05,18,4.50
2015,10,11,05,19,4.50
2015,10,11,05,20,4.50
2015,10,11,05,21,4.50
2015,10,11,05,22,4.50
2015,10,11,05,23,4.60
2015,10,11,05,24,4.60
2015,10,11,05,25,4.60
2015,10,11,05,26,4.60
2015,10,11,05,27,4.60
2015,10,11,05,28,4.60
2015,10,11,05,29,4.60
2015,10,11,05,30,4.60
2015,10,11,05,31,4.60
2015,10,11,05,32,4.50
2015,10,11,05,33,4.50
2015,10,11,05,34,4.40
2015,10,11,05,35,4.40
2015,10,11,05,36,4.30
2015,10,11,05,37,4.20
2015,10,11,05,38,4.20
2015,10,11,05,39,4.10
2015,10,11,05,40,4.00
2015,10,11,05,41,3.90
2015,10,11,05,42,3.80
2015,10,11,05,43,3.80
2015,10,11,05,44,3.70
2015,10,11,05,45,3.70
2015,10,11,05,46,3.70
2015,10,11,05,47,3.70
2015,10,11,05,48,3.70
2015,10,11,05,49,3.70
2015,10,11,05,50,3.70
2015,10,11,05,51,3.70
2015,10,11,05,52,3.70
2015,10,11,05,53,3.70
2015,10,11,05,54,3.80
2015,10,11,05,55,3.80
2015,10,11,05,56,3.80
2015,10,11,05,57,3.80
2015,10,11,05,58,3.80
2015,10,11,05,59,3.80
2015,10,11,06,00,3.80
2015,10,11,06,01,3.80
2015,10,11,06,02,3.80
2015,10,11,06,03,3.80
2015,10,11,06,04,3.80
2015,10,11,06,05,3.80
2015,10,11,06,06,3.80
2015,10,11,06,07,3.80
2015,10,11,06,08,3.80
2015,10,11,06,09,3.80
2015,10,11,06,10,3.80
2015,10,11,06,11,3.80
2015,10,11,06,12,3.80
2015,10,11,06,13,3.80
2015,10,11,06,14,3.80
2015,10,11,06,15,3.70
2015,10,11,06,16,3.70
2015,10,11,06,17,3.70
2015,10,11,06,18,3.70
2015,10,11,06,19,3.70
2015,10,11,06,20,3.70
2015,10,11,06,21,3.70
2015,10,11,06,22,3.70
2015,10,11,06,23,3.70
2015,10,11,06,24,3.70
2015,10,11,06,25,3.70
2015,10,11,06,26,3.80
2015,10,11,06,27,3.80
2015,10,11,06,28,3.80
2015,10,11,06,29,3.80
2015,10,11,06,30,3.80
2015,10,11,06,31,3.80
2015,10,11,06,32,3.80
2015,10,11,06,33,3.80
2015,10,11,06,34,3.80
2015,10,11,06,35,3.80
2015,10,11,06,36,3.70
2015,10,11,06,37,3.70
2015,10,11,06,38,3.70
2015,10,11,06,39,3.70
2015,10,11,06,40,3.70
2015,10,11,06,41,3.70
2015,10,11,06,42,3.70
2015,10,11,06,43,3.70
2015,10,11,06,44,3.70
2015,10,11,06,45,3.80
2015,10,11,06,46,3.80
2015,10,11,06,47,3.80
2015,10,11,06,48,3.80
2015,10,11,06,49,3.80
2015,10,11,06,50,3.80
2015,10,11,06,51,3.70
2015,10,11,06,52,3.70
2015,10,11,06,53,3.60
2015,10,11,06,54,3.60
2015,10,11,06,55,3.60
2015,10,11,06,56,3.50
2015,10,11,06,57,3.50
2015,10,11,06,58,3.50
2015,10,11,06,59,3.50
2015,10,11,07,00,3.50
2015,10,11,07,01,3.50
2015,10,11,07,02,3.60
2015,10,11,07,03,3.60
2015,10,11,07,04,3.60
2015,10,11,07,05,3.70
2015,10,11,07,06,3.70
2015,10,11,07,07,3.70
2015,10,11,07,08,3.70
2015,10,11,07,09,3.70
2015,10,11,07,10,3.70
2015,10,11,07,11,3.70
2015,10,11,07,12,3.70
2015,10,11,07,13,3.70
2015,10,11,07,14,3.70
2015,10,11,07,15,3.70
2015,10,11,07,16,3.70
2015,10,11,07,17,3.70
2015,10,11,07,18,3.70
2015,10,11,07,19,3.70
2015,10,11,07,20,3.70
2015,10,11,07,21,3.70
2015,10,11,07,22,3.70
2015,10,11,07,23,3.70
2015,10,11,07,24,3.70
2015,10,11,07,25,3.70
2015,10,11,07,26,3.70
2015,10,11,07,27,3.70
2015,10,11,07,28,3.70
2015,10,11,07,29,3.80
2015,10,11,07,30,3.80
2015,10,11,07,31,3.80
2015,10,11,07,32,3.80
2015,10,11,07,33,3.80
2015,10,11,07,34,3.80
2015,10,11,07,35,3.80
2015,10,11,07,36,3.70
2015,10,11,07,37,3.80
2015,10,11,07,38,3.70
2015,10,11,07,39,3.70
2015,10,11,07,40,3.70
2015,10,11,07,41,3.70
2015,10,11,07,42,3.70
2015,10,11,07,43,3.70
2015,10,11,07,44,3.70
2015,10,11,07,45,3.70
2015,10,11,07,46,3.80
2015,10,11,07,47,3.80
2015,10,11,07,48,3.80
2015,10,11,07,49,3.80
2015,10,11,07,50,3.90
2015,10,11,07,51,3.90
2015,10,11,07,52,3.90
2015,10,11,07,53,3.90
2015,10,11,07,54,3.90
2015,10,11,07,55,3.90
2015,10,11,07,56,4.00
2015,10,11,07,57,3.90
2015,10,11,07,58,3.90
2015,10,11,07,59,3.90
2015,10,11,08,00,3.90
2015,10,11,08,01,3.90
2015,10,11,08,02,3.80
2015,10,11,08,03,3.80
2015,10,11,08,04,3.70
2015,10,11,08,05,3.70
2015,10,11,08,06,3.70
2015,10,11,08,07,3.70
2015,10,11,08,08,3.70
2015,10,11,08,09,3.70
2015,10,11,08,10,3.70
2015,10,11,08,11,3.70
2015,10,11,08,12,3.70
2015,10,11,08,13,3.70
2015,10,11,08,14,3.70
2015,10,11,08,15,3.70
2015,10,11,08,16,3.70
2015,10,11,08,17,3.70
2015,10,11,08,18,3.60
2015,10,11,08,19,3.60
2015,10,11,08,20,3.60
2015,10,11,08,21,3.60
2015,10,11,08,22,3.60
2015,10,11,08,23,3.60
2015,10,11,08,24,3.60
2015,10,11,08,25,3.70
2015,10,11,08,26,3.70
2015,10,11,08,27,3.70
2015,10,11,08,28,3.70
2015,10,11,08,29,3.70
2015,10,11,08,30,3.80
2015,10,11,08,31,3.80
2015,10,11,08,32,3.90
2015,10,11,08,33,3.90
2015,10,11,08,34,4.00
2015,10,11,08,35,4.00
2015,10,11,08,36,4.10
2015,10,11,08,37,4.20
2015,10,11,08,38,4.20
2015,10,11,08,39,4.20
2015,10,11,08,40,4.30
2015,10,11,08,41,4.30
2015,10,11,08,42,4.40
2015,10,11,08,43,4.50
2015,10,11,08,44,4.50
2015,10,11,08,45,4.60
2015,10,11,08,46,4.60
2015,10,11,08,47,4.60
2015,10,11,08,48,4.70
2015,10,11,08,49,4.80
2015,10,11,08,50,4.90
2015,10,11,08,51,4.90
2015,10,11,08,52,5.00
2015,10,11,08,53,5.10
2015,10,11,08,54,5.10
2015,10,11,08,55,5.20
2015,10,11,08,56,5.30
2015,10,11,08,57,5.30
2015,10,11,08,58,5.40
2015,10,11,08,59,5.50
2015,10,11,09,00,5.50
2015,10,11,09,01,5.60
2015,10,11,09,02,5.70
2015,10,11,09,03,5.80
2015,10,11,09,04,5.80
2015,10,11,09,05,5.90
2015,10,11,09,06,6.00
2015,10,11,09,07,6.00
2015,10,11,09,08,6.10
2015,10,11,09,09,6.20
2015,10,11,09,10,6.20
2015,10,11,09,11,6.30
2015,10,11,09,12,6.30
2015,10,11,09,13,6.40
2015,10,11,09,14,6.50
2015,10,11,09,15,6.50
2015,10,11,09,16,6.60
2015,10,11,09,17,6.60
2015,10,11,09,18,6.60
2015,10,11,09,19,6.60
2015,10,11,09,20,6.70
2015,10,11,09,21,6.70
2015,10,11,09,22,6.70
2015,10,11,09,23,6.70
2015,10,11,09,24,6.80
2015,10,11,09,25,6.80
2015,10,11,09,26,6.80
2015,10,11,09,27,6.90
2015,10,11,09,28,6.90
2015,10,11,09,29,7.00
2015,10,11,09,30,7.00
2015,10,11,09,31,7.10
2015,10,11,09,32,7.10
2015,10,11,09,33,7.20
2015,10,11,09,34,7.20
2015,10,11,09,35,7.30
2015,10,11,09,36,7.30
2015,10,11,09,37,7.30
2015,10,11,09,38,7.40
2015,10,11,09,39,7.40
2015,10,11,09,40,7.40
2015,10,11,09,41,7.50
2015,10,11,09,42,7.50
2015,10,11,09,43,7.60
2015,10,11,09,44,7.60
2015,10,11,09,45,7.70
2015,10,11,09,46,7.70
2015,10,11,09,47,7.80
2015,10,11,09,48,7.80
2015,10,11,09,49,7.90
2015,10,11,09,50,7.90
2015,10,11,09,51,8.00
2015,10,11,09,52,8.00
2015,10,11,09,53,8.10
2015,10,11,09,54,8.20
2015,10,11,09,55,8.20
2015,10,11,09,56,8.30
2015,10,11,09,57,8.30
2015,10,11,09,58,8.40
2015,10,11,09,59,8.50
2015,10,11,10,00,8.60
2015,10,11,10,01,8.70
2015,10,11,10,02,8.80
2015,10,11,10,03,8.90
2015,10,11,10,04,8.90
2015,10,11,10,05,9.00
2015,10,11,10,06,9.10
2015,10,11,10,07,9.20
2015,10,11,10,08,9.30
2015,10,11,10,09,9.30
2015,10,11,10,10,9.40
2015,10,11,10,11,9.40
2015,10,11,10,12,9.50
2015,10,11,10,13,9.50
2015,10,11,10,14,9.60
2015,10,11,10,15,9.60
2015,10,11,10,16,9.60
2015,10,11,10,17,9.60
2015,10,11,10,18,9.70
2015,10,11,10,19,9.70
2015,10,11,10,20,9.70
2015,10,11,10,21,9.70
2015,10,11,10,22,9.80
2015,10,11,10,23,9.80
2015,10,11,10,24,9.90
2015,10,11,10,25,9.90
2015,10,11,10,26,10.00
2015,10,11,10,27,10.10
2015,10,11,10,28,10.20
2015,10,11,10,29,10.30
2015,10,11,10,30,10.30
2015,10,11,10,31,10.30
2015,10,11,10,32,10.40
2015,10,11,10,33,10.40
2015,10,11,10,34,10.40
2015,10,11,10,35,10.50
2015,10,11,10,36,10.50
2015,10,11,10,37,10.50
2015,10,11,10,38,10.60
2015,10,11,10,39,10.60
2015,10,11,10,40,10.70
2015,10,11,10,41,10.70
2015,10,11,10,42,10.80
2015,10,11,10,43,10.80
2015,10,11,10,44,10.90
2015,10,11,10,45,11.00
2015,10,11,10,46,11.10
2015,10,11,10,47,11.20
2015,10,11,10,48,11.30
2015,10,11,10,49,11.30
2015,10,11,10,50,11.40
2015,10,11,10,51,11.40
2015,10,11,10,52,11.50
2015,10,11,10,53,11.50
2015,10,11,10,54,11.60
2015,10,11,10,55,11.60
2015,10,11,10,56,11.60
2015,10,11,10,57,11.70
2015,10,11,10,58,11.70
2015,10,11,10,59,11.70
2015,10,11,11,00,11.70
2015,10,11,11,01,11.70
2015,10,11,11,02,11.70
2015,10,11,11,03,11.70
2015,10,11,11,04,11.70
2015,10,11,11,05,11.80
2015,10,11,11,06,11.80
2015,10,11,11,07,11.80
2015,10,11,11,08,11.90
2015,10,11,11,09,11.90
2015,10,11,11,10,12.00
2015,10,11,11,11,12.00
2015,10,11,11,12,12.00
2015,10,11,11,13,12.10
2015,10,11,11,14,12.10
2015,10,11,11,15,12.10
2015,10,11,11,16,12.10
2015,10,11,11,17,12.10
2015,10,11,11,18,12.20
2015,10,11,11,19,12.10
2015,10,11,11,20,12.20
2015,10,11,11,21,12.20
2015,10,11,11,22,12.20
2015,10,11,11,23,12.20
2015,10,11,11,24,12.30
2015,10,11,11,25,12.30
2015,10,11,11,26,12.30
2015,10,11,11,27,12.30
2015,10,11,11,28,12.30
2015,10,11,11,29,12.30
2015,10,11,11,30,12.40
2015,10,11,11,31,12.40
2015,10,11,11,32,12.40
2015,10,11,11,33,12.50
2015,10,11,11,34,12.50
2015,10,11,11,35,12.60
2015,10,11,11,36,12.60
2015,10,11,11,37,12.60
2015,10,11,11,38,12.60
2015,10,11,11,39,12.70
2015,10,11,11,40,12.60
2015,10,11,11,41,12.60
2015,10,11,11,42,12.70
2015,10,11,11,43,12.70
2015,10,11,11,44,12.70
2015,10,11,11,45,12.70
2015,10,11,11,46,12.70
2015,10,11,11,47,12.70
2015,10,11,11,48,12.70
2015,10,11,11,49,12.60
2015,10,11,11,50,12.60
2015,10,11,11,51,12.60
2015,10,11,11,52,12.60
2015,10,11,11,53,12.60
2015,10,11,11,54,12.60
2015,10,11,11,55,12.60
2015,10,11,11,56,12.60
2015,10,11,11,57,12.60
2015,10,11,11,58,12.60
2015,10,11,11,59,12.60
2015,10,11,12,00,12.50
2015,10,11,12,01,12.50
2015,10,11,12,02,12.50
2015,10,11,12,03,12.50
2015,10,11,12,04,12.50
2015,10,11,12,05,12.40
2015,10,11,12,06,12.40
2015,10,11,12,07,12.40
2015,10,11,12,08,12.40
2015,10,11,12,09,12.40
2015,10,11,12,10,12.40
2015,10,11,12,11,12.40
2015,10,11,12,12,12.40
2015,10,11,12,13,12.30
2015,10,11,12,14,12.30
2015,10,11,12,15,12.30
2015,10,11,12,16,12.30
2015,10,11,12,17,12.30
2015,10,11,12,18,12.30
2015,10,11,12,19,12.30
2015,10,11,12,20,12.30
2015,10,11,12,21,12.30
2015,10,11,12,22,12.30
2015,10,11,12,23,12.30
2015,10,11,12,24,12.30
2015,10,11,12,25,12.30
2015,10,11,12,26,12.30
2015,10,11,12,27,12.30
2015,10,11,12,28,12.30
2015,10,11,12,29,12.30
2015,10,11,12,30,12.30
2015,10,11,12,31,12.30
2015,10,11,12,32,12.30
2015,10,11,12,33,12.30
2015,10,11,12,34,12.30
2015,10,11,12,35,12.30
2015,10,11,12,36,12.30
2015,10,11,12,37,12.30
2015,10,11,12,38,12.30
2015,10,11,12,39,12.30
2015,10,11,12,40,12.30
2015,10,11,12,41,12.30
2015,10,11,12,42,12.30
2015,10,11,12,43,12.30
2015,10,11,12,44,12.30
2015,10,11,12,45,12.30
2015,10,11,12,46,12.30
2015,10,11,12,47,12.30
2015,10,11,12,48,12.30
2015,10,11,12,49,12.30
2015,10,11,12,50,12.30
2015,10,11,12,51,12.30
2015,10,11,12,52,12.30
2015,10,11,12,53,12.30
2015,10,11,12,54,12.30
2015,10,11,12,55,12.40
2015,10,11,12,56,12.40
2015,10,11,12,57,12.40
2015,10,11,12,58,12.40
2015,10,11,12,59,12.40
2015,10,11,13,00,12.40
2015,10,11,13,01,12.40
2015,10,11,13,02,12.40
2015,10,11,13,03,12.40
2015,10,11,13,04,12.40
2015,10,11,13,05,12.40
2015,10,11,13,06,12.40
2015,10,11,13,07,12.40
2015,10,11,13,08,12.40
2015,10,11,13,09,12.40
2015,10,11,13,10,12.40
2015,10,11,13,11,12.40
2015,10,11,13,12,12.40
2015,10,11,13,13,12.40
2015,10,11,13,14,12.40
2015,10,11,13,15,12.40
2015,10,11,13,16,12.40
2015,10,11,13,17,12.40
2015,10,11,13,18,12.40
2015,10,11,13,19,12.40
2015,10,11,13,20,12.40
2015,10,11,13,21,12.40
2015,10,11,13,22,12.30
2015,10,11,13,23,12.30
2015,10,11,13,24,12.30
2015,10,11,13,25,12.30
2015,10,11,13,26,12.30
2015,10,11,13,27,12.30
2015,10,11,13,28,12.30
2015,10,11,13,29,12.20
2015,10,11,13,30,12.20
2015,10,11,13,31,12.20
2015,10,11,13,32,12.20
2015,10,11,13,33,12.20
2015,10,11,13,34,12.20
2015,10,11,13,35,12.20
2015,10,11,13,36,12.20
2015,10,11,13,37,12.20
2015,10,11,13,38,12.20
2015,10,11,13,39,12.20
2015,10,11,13,40,12.20
2015,10,11,13,41,12.20
2015,10,11,13,42,12.20
2015,10,11,13,43,12.20
2015,10,11,13,44,12.30
2015,10,11,13,45,12.30
2015,10,11,13,46,12.30
2015,10,11,13,47,12.30
2015,10,11,13,48,12.30
2015,10,11,13,49,12.30
2015,10,11,13,50,12.30
2015,10,11,13,51,12.40
2015,10,11,13,52,12.40
2015,10,11,13,53,12.40
2015,10,11,13,54,12.40
2015,10,11,13,55,12.40
2015,10,11,13,56,12.30
2015,10,11,13,57,12.30
2015,10,11,13,58,12.30
2015,10,11,13,59,12.30
2015,10,11,14,00,12.30
2015,10,11,14,01,12.30
2015,10,11,14,02,12.30
2015,10,11,14,03,12.30
2015,10,11,14,04,12.30
2015,10,11,14,05,12.30
2015,10,11,14,06,12.30
2015,10,11,14,07,12.30
2015,10,11,14,08,12.30
2015,10,11,14,09,12.30
2015,10,11,14,10,12.30
2015,10,11,14,11,12.20
2015,10,11,14,12,12.20
2015,10,11,14,13,12.20
2015,10,11,14,14,12.20
2015,10,11,14,15,12.20
2015,10,11,14,16,12.20
2015,10,11,14,17,12.30
2015,10,11,14,18,12.20
2015,10,11,14,19,12.20
2015,10,11,14,20,12.20
2015,10,11,14,21,12.20
2015,10,11,14,22,12.20
2015,10,11,14,23,12.20
2015,10,11,14,24,12.20
2015,10,11,14,25,12.20
2015,10,11,14,26,12.20
2015,10,11,14,27,12.20
2015,10,11,14,28,12.20
2015,10,11,14,29,12.20
2015,10,11,14,30,12.20
2015,10,11,14,31,12.20
2015,10,11,14,32,12.20
2015,10,11,14,33,12.20
2015,10,11,14,34,12.20
2015,10,11,14,35,12.20
2015,10,11,14,36,12.20
2015,10,11,14,37,12.20
2015,10,11,14,38,12.20
2015,10,11,14,39,12.20
2015,10,11,14,40,12.20
2015,10,11,14,41,12.20
2015,10,11,14,42,12.10
2015,10,11,14,43,12.10
2015,10,11,14,44,12.10
2015,10,11,14,45,12.10
2015,10,11,14,46,12.10
2015,10,11,14,47,12.10
2015,10,11,14,48,12.00
2015,10,11,14,49,12.00
2015,10,11,14,50,11.90
2015,10,11,14,51,11.90
2015,10,11,14,52,11.90
2015,10,11,14,53,11.90
2015,10,11,14,54,11.90
2015,10,11,14,55,11.90
2015,10,11,14,56,11.80
2015,10,11,14,57,11.80
2015,10,11,14,58,11.80
2015,10,11,14,59,11.80
2015,10,11,15,00,11.80
2015,10,11,15,01,11.80
2015,10,11,15,02,11.80
2015,10,11,15,03,11.80
2015,10,11,15,04,11.80
2015,10,11,15,05,11.70
2015,10,11,15,06,11.70
2015,10,11,15,07,11.70
2015,10,11,15,08,11.70
2015,10,11,15,09,11.70
2015,10,11,15,10,11.70
2015,10,11,15,11,11.70
2015,10,11,15,12,11.70
2015,10,11,15,13,11.70
2015,10,11,15,14,11.70
2015,10,11,15,15,11.70
2015,10,11,15,16,11.70
2015,10,11,15,17,11.70
2015,10,11,15,18,11.70
2015,10,11,15,19,11.70
2015,10,11,15,20,11.70
2015,10,11,15,21,11.70
2015,10,11,15,22,11.70
2015,10,11,15,23,11.70
2015,10,11,15,24,11.70
2015,10,11,15,25,11.70
2015,10,11,15,26,11.70
2015,10,11,15,27,11.70
2015,10,11,15,28,11.70
2015,10,11,15,29,11.70
2015,10,11,15,30,11.70
2015,10,11,15,31,11.70
2015,10,11,15,32,11.70
2015,10,11,15,33,11.60
2015,10,11,15,34,11.60
2015,10,11,15,35,11.60
2015,10,11,15,36,11.60
2015,10,11,15,37,11.60
2015,10,11,15,38,11.60
2015,10,11,15,39,11.60
2015,10,11,15,40,11.60
2015,10,11,15,41,11.60
2015,10,11,15,42,11.60
2015,10,11,15,43,11.60
2015,10,11,15,44,11.60
2015,10,11,15,45,11.60
2015,10,11,15,46,11.60
2015,10,11,15,47,11.60
2015,10,11,15,48,11.60
2015,10,11,15,49,11.60
2015,10,11,15,50,11.60
2015,10,11,15,51,11.60
2015,10,11,15,52,11.60
2015,10,11,15,53,11.60
2015,10,11,15,54,11.60
2015,10,11,15,55,11.60
2015,10,11,15,56,11.60
2015,10,11,15,57,11.60
2015,10,11,15,58,11.60
2015,10,11,15,59,11.50
2015,10,11,16,00,11.50
2015,10,11,16,01,11.50
2015,10,11,16,02,11.50
2015,10,11,16,03,11.40
2015,10,11,16,04,11.50
2015,10,11,16,05,11.50
2015,10,11,16,06,11.50
2015,10,11,16,07,11.50
2015,10,11,16,08,11.50
2015,10,11,16,09,11.50
2015,10,11,16,10,11.50
2015,10,11,16,11,11.50
2015,10,11,16,12,11.50
2015,10,11,16,13,11.50
2015,10,11,16,14,11.50
2015,10,11,16,15,11.50
2015,10,11,16,16,11.50
2015,10,11,16,17,11.50
2015,10,11,16,18,11.50
2015,10,11,16,19,11.60
2015,10,11,16,20,11.60
2015,10,11,16,21,11.60
2015,10,11,16,22,11.60
2015,10,11,16,23,11.60
2015,10,11,16,24,11.50
2015,10,11,16,25,11.50
2015,10,11,16,26,11.50
2015,10,11,16,27,11.50
2015,10,11,16,28,11.50
2015,10,11,16,29,11.50
2015,10,11,16,30,11.50
2015,10,11,16,31,11.50
2015,10,11,16,32,11.50
2015,10,11,16,33,11.50
2015,10,11,16,34,11.50
2015,10,11,16,35,11.50
2015,10,11,16,36,11.50
2015,10,11,16,37,11.50
2015,10,11,16,38,11.50
2015,10,11,16,39,11.60
2015,10,11,16,40,11.60
2015,10,11,16,41,11.60
2015,10,11,16,42,11.60
2015,10,11,16,43,11.60
2015,10,11,16,44,11.60
2015,10,11,16,45,11.60
2015,10,11,16,46,11.60
2015,10,11,16,47,11.60
2015,10,11,16,48,11.60
2015,10,11,16,49,11.60
2015,10,11,16,50,11.60
2015,10,11,16,51,11.60
2015,10,11,16,52,11.70
2015,10,11,16,53,11.70
2015,10,11,16,54,11.70
2015,10,11,16,55,11.70
2015,10,11,16,56,11.70
2015,10,11,16,57,11.70
2015,10,11,16,58,11.70
2015,10,11,16,59,11.70
2015,10,11,17,00,11.70
2015,10,11,17,01,11.70
2015,10,11,17,02,11.70
2015,10,11,17,03,11.70
2015,10,11,17,04,11.60
2015,10,11,17,05,11.60
2015,10,11,17,06,11.60
2015,10,11,17,07,11.60
2015,10,11,17,08,11.60
2015,10,11,17,09,11.60
2015,10,11,17,10,11.60
2015,10,11,17,11,11.60
2015,10,11,17,12,11.60
2015,10,11,17,13,11.60
2015,10,11,17,14,11.60
2015,10,11,17,15,11.60
2015,10,11,17,16,11.60
2015,10,11,17,17,11.60
2015,10,11,17,18,11.60
2015,10,11,17,19,11.60
2015,10,11,17,20,11.70
2015,10,11,17,21,11.70
2015,10,11,17,22,11.70
2015,10,11,17,23,11.70
2015,10,11,17,24,11.70
2015,10,11,17,25,11.70
2015,10,11,17,26,11.70
2015,10,11,17,27,11.70
2015,10,11,17,28,11.70
2015,10,11,17,29,11.70
2015,10,11,17,30,11.70
2015,10,11,17,31,11.80
2015,10,11,17,32,11.80
2015,10,11,17,33,11.80
2015,10,11,17,34,11.80
2015,10,11,17,35,11.80
2015,10,11,17,36,11.80
2015,10,11,17,37,11.80
2015,10,11,17,38,11.80
2015,10,11,17,39,11.80
2015,10,11,17,40,11.80
2015,10,11,17,41,11.80
2015,10,11,17,42,11.80
2015,10,11,17,43,11.80
2015,10,11,17,44,11.70
2015,10,11,17,45,11.80
2015,10,11,17,46,11.80